Location: Grange Verzio
(44.5000°N, 6.9833°E)
Time: 05:25:43
(UTC+00:00)

Cosmos 2278 Rocket - Pass Details

Date: 01 February 2023
Orbit: 841 x 845 km, 71.0° (Epoch: 21 March)

Event Time Altitude Azimuth Distance (km) Brightness Sun altitude
Rises 18:42:13 0° 343° (NNW) 3,415 5.5 -21.8°
Reaches altitude 10° 18:45:34 10° 3° (N) 2,476 4.6 -22.4°
Enters shadow 18:47:19 15° 20° (NNE) 2,138 4.1 -22.7°
